This demonstration page uses our WeatherBlox Daily Observations layout. Learn more.

Left ArrowRight Arrow

39.29038, -76.61219

Hourly Observations for October 16, 2021

Temp ( °F °C ) Dew Point ( °F °C ) Humidity (%) Winds ( mph kmh ) Pressure ( in mb ) Visibility ( mi km ) Precip ( " mm )
12:54 am 00:54 Mostly Clear 68 20 63 17.2 84 84 SE 3 6 29.85 1011 10 16 N/A
1:54 am 01:54 Mostly Clear 67 19.4 62 16.7 84 84 N N/A 29.83 1010 10 16 N/A
2:54 am 02:54 Mostly Clear 67 19.4 61 16.1 81 81 N N/A 29.80 1009 10 16 N/A
3:54 am 03:54 Mostly Clear 65 18.3 60 15.6 84 84 N N/A 29.79 1009 10 16 N/A
4:54 am 04:54 Partly Cloudy 65 18.3 60 15.6 84 84 N N/A 29.78 1008 10 16 N/A
5:54 am 05:54 Partly Cloudy 65 18.3 61 16.1 87 87 N N/A 29.76 1008 10 16 N/A
6:54 am 06:54 Mostly Cloudy 65 18.3 61 16.1 87 87 VRB 3 6 29.75 1008 8 13 N/A
7:54 am 07:54 Mostly Cloudy 65 18.3 61 16.1 87 87 SSE 6 9 29.74 1007 10 16 N/A
8:54 am 08:54 Mostly Cloudy 70 21.1 62 16.7 76 76 S 7 11 29.74 1007 10 16 N/A
9:54 am 09:54 Mostly Cloudy 74 23.3 62 16.7 67 67 S 9 15 29.72 1007 10 16 N/A
10:54 am 10:54 Mostly Cloudy 75 23.9 63 17.2 66 66 S 13 20 29.71 1006 10 16 N/A
11:54 am 11:54 Mostly Cloudy 78 25.6 64 17.8 62 62 S 12 19 29.68 1005 10 16 N/A
12:54 pm 12:54 Mostly Cloudy 82 27.8 64 17.8 55 55 S 13 20 29.65 1004 10 16 N/A
1:54 pm 13:54 Mostly Cloudy 80 26.7 64 17.8 58 58 SW 14 22 29.62 1003 10 16 N/A
2:25 pm 14:25 Cloudy with Light Rain 73 22.8 56 13.3 55 55 WNW 14 22 29.65 1004 8 13 0.00 0.00
2:47 pm 14:47 Cloudy with Light Rain 66 18.9 59 15 78 78 WNW 17 28 29.68 1005 4 6 0.01 0.25
2:54 pm 14:54 Cloudy with Light Rain 66 18.9 60 15.6 81 81 WNW 12 19 29.67 1005 6 10 0.02 0.51
3:54 pm 15:54 Cloudy with Light Rain 65 18.3 61 16.1 87 87 W 8 13 29.71 1006 8 13 0.01 0.25
4:54 pm 16:54 Cloudy with Rain 64 17.8 61 16.1 90 90 W 8 13 29.72 1006 3 5 0.14 3.56
5:54 pm 17:54 Cloudy with Light Rain 64 17.8 60 15.6 87 87 W 7 11 29.75 1007 10 16 0.04 1.02
6:54 pm 18:54 Cloudy 63 17.2 59 15 87 87 W 9 15 29.79 1009 10 16 0.00 0.00
7:54 pm 19:54 Mostly Cloudy 61 16.1 54 12.2 78 78 WNW 12 19 29.82 1010 10 16 N/A
8:54 pm 20:54 Mostly Cloudy 59 15 49 9.4 69 69 WNW 10 17 29.85 1011 10 16 N/A
9:54 pm 21:54 Partly Cloudy 57 13.9 48 8.9 72 72 W 8 13 29.88 1012 10 16 N/A
10:54 pm 22:54 Mostly Clear 54 12.2 46 7.8 75 75 W 7 11 29.90 1012 10 16 N/A
11:54 pm 23:54 Mostly Clear 53 11.7 46 7.8 77 77 W 6 9 29.91 1013 10 16 N/A

Powered by AerisWeather